| time (UTC) | temp C | wind direction | speed KPH | gust KPH | rain 1hr cm | rain 24hr cm | rain mn cm | humidity % | barometer mb |
| 20260504100603 | 8 | 325 | 0.0 | 0.0 | 0.00 | 0.00 | 0.00 | 62 | 1008.5 |
| 20260504100104 | 8 | 325 | 0.0 | 0.0 | 0.00 | 0.00 | 0.00 | 62 | 1008.5 |
| 20260504090104 | 10 | 325 | 0.0 | 0.0 | 0.00 | 0.00 | 0.00 | 59 | 1008.4 |
| 20260504081603 | 11 | 325 | 0.0 | 0.0 | 0.00 | 0.00 | 0.00 | 55 | 1008.5 |
| 20260504081104 | 11 | 325 | 0.0 | 0.0 | 0.00 | 0.00 | 0.00 | 55 | 1008.5 |
| 20260504080603 | 11 | 325 | 0.0 | 0.0 | 0.00 | 0.00 | 0.00 | 55 | 1008.5 |
| 20260504080104 | 11 | 325 | 0.0 | 0.0 | 0.00 | 0.00 | 0.00 | 54 | 1008.6 |
| 20260504070103 | 13 | 325 | 0.0 | 0.0 | 0.00 | 0.00 | 0.00 | 49 | 1008.7 |
| 20260504060104 | 16 | 325 | 0.0 | 0.0 | 0.00 | 0.00 | 0.00 | 43 | 1008.7 |
| 20260504050604 | 18 | 325 | 0.0 | 0.0 | 0.00 | 0.00 | 0.00 | 36 | 1008.5 |
| 20260504050104 | 18 | 325 | 0.0 | 0.0 | 0.00 | 0.00 | 0.00 | 35 | 1008.4 |
| 20260504045104 | 19 | 325 | 0.0 | 0.0 | 0.00 | 0.00 | 0.00 | 34 | 1008.4 |
| 20260504044603 | 19 | 325 | 0.0 | 0.0 | 0.00 | 0.00 | 0.00 | 33 | 1008.6 |
| 20260504044104 | 19 | 325 | 0.0 | 0.0 | 0.00 | 0.00 | 0.00 | 33 | 1008.6 |
| 20260504043604 | 19 | 325 | 0.0 | 0.0 | 0.00 | 0.00 | 0.00 | 33 | 1008.4 |
| 20260504043104 | 19 | 325 | 0.0 | 0.0 | 0.00 | 0.00 | 0.00 | 33 | 1008.3 |
| 20260504042604 | 20 | 325 | 0.0 | 1.6 | 0.00 | 0.00 | 0.00 | 32 | 1008.3 |
| 20260504042103 | 20 | 324 | 0.0 | 0.0 | 0.00 | 0.00 | 0.00 | 32 | 1008.3 |
| 20260504041603 | 20 | 324 | 0.0 | 3.2 | 0.00 | 0.00 | 0.00 | 32 | 1008.4 |
| 20260504041104 | 20 | 339 | 1.6 | 4.8 | 0.00 | 0.00 | 0.00 | 31 | 1008.4 |
| 20260504040604 | 20 | 327 | 1.6 | 3.2 | 0.00 | 0.00 | 0.00 | 31 | 1008.3 |
| 20260504040104 | 20 | 326 | 1.6 | 4.8 | 0.00 | 0.00 | 0.00 | 31 | 1008.2 |
| 20260504035604 | 20 | 325 | 1.6 | 4.8 | 0.00 | 0.00 | 0.00 | 30 | 1008.1 |
| 20260504035103 | 21 | 325 | 0.0 | 4.8 | 0.00 | 0.00 | 0.00 | 30 | 1008.1 |
| 20260504034603 | 21 | 331 | 3.2 | 14.5 | 0.00 | 0.00 | 0.00 | 29 | 1008.1 |
| 20260504033604 | 21 | 324 | 1.6 | 4.8 | 0.00 | 0.00 | 0.00 | 29 | 1008.0 |
| 20260504033104 | 21 | 318 | 1.6 | 9.7 | 0.00 | 0.00 | 0.00 | 29 | 1007.8 |
| 20260504032604 | 21 | 324 | 1.6 | 4.8 | 0.00 | 0.00 | 0.00 | 29 | 1007.8 |
| 20260504032104 | 21 | 309 | 1.6 | 9.7 | 0.00 | 0.00 | 0.00 | 28 | 1007.8 |
| 20260504031604 | 22 | 321 | 4.8 | 22.5 | 0.00 | 0.00 | 0.00 | 28 | 1007.7 |
| 20260504031103 | 22 | 328 | 4.8 | 16.1 | 0.00 | 0.00 | 0.00 | 28 | 1007.7 |
| 20260504030603 | 22 | 325 | 9.7 | 19.3 | 0.00 | 0.00 | 0.00 | 28 | 1007.7 |
| 20260504030104 | 22 | 20 | 9.7 | 20.9 | 0.00 | 0.00 | 0.00 | 28 | 1007.5 |
| 20260504025105 | 22 | 322 | 0.0 | 11.3 | 0.00 | 0.00 | 0.00 | 31 | 1007.5 |
| 20260504024604 | 22 | 338 | 1.6 | 20.9 | 0.00 | 0.00 | 0.00 | 31 | 1007.5 |
| 20260504024103 | 22 | 330 | 1.6 | 22.5 | 0.00 | 0.00 | 0.00 | 30 | 1007.5 |
| 20260504023603 | 23 | 331 | 1.6 | 4.8 | 0.00 | 0.00 | 0.00 | 29 | 1007.5 |
| 20260504023104 | 23 | 315 | 1.6 | 19.3 | 0.00 | 0.00 | 0.00 | 27 | 1007.6 |
| 20260504022604 | 23 | 309 | 9.7 | 22.5 | 0.00 | 0.00 | 0.00 | 26 | 1007.5 |
| 20260504022104 | 23 | 321 | 4.8 | 19.3 | 0.00 | 0.00 | 0.00 | 27 | 1007.4 |
| 20260504021604 | 23 | 326 | 6.4 | 19.3 | 0.00 | 0.00 | 0.00 | 27 | 1007.3 |
| 20260504021103 | 23 | 322 | 8.0 | 22.5 | 0.00 | 0.00 | 0.00 | 26 | 1007.2 |
| 20260504020604 | 23 | 323 | 6.4 | 19.3 | 0.00 | 0.00 | 0.00 | 26 | 1007.1 |
| 20260504020104 | 23 | 321 | 8.0 | 20.9 | 0.00 | 0.00 | 0.00 | 26 | 1007.2 |
| 20260504015604 | 24 | 325 | 6.4 | 19.3 | 0.00 | 0.00 | 0.00 | 26 | 1007.2 |
| 20260504015103 | 24 | 317 | 6.4 | 16.1 | 0.00 | 0.00 | 0.00 | 25 | 1007.2 |
| 20260504014604 | 24 | 321 | 1.6 | 19.3 | 0.00 | 0.00 | 0.00 | 24 | 1007.3 |
| 20260504014104 | 24 | 328 | 3.2 | 16.1 | 0.00 | 0.00 | 0.00 | 24 | 1007.3 |
| 20260504013604 | 24 | 329 | 8.0 | 20.9 | 0.00 | 0.00 | 0.00 | 25 | 1007.3 |
| 20260504013104 | 24 | 327 | 3.2 | 20.9 | 0.00 | 0.00 | 0.00 | 25 | 1007.3 |
| 20260504012604 | 25 | 331 | 6.4 | 16.1 | 0.00 | 0.00 | 0.00 | 25 | 1007.4 |
| 20260504012103 | 25 | 325 | 6.4 | 19.3 | 0.00 | 0.00 | 0.00 | 25 | 1007.4 |
| 20260504011103 | 25 | 331 | 0.0 | 8.0 | 0.00 | 0.00 | 0.00 | 25 | 1007.5 |
| 20260504010604 | 25 | 311 | 3.2 | 14.5 | 0.00 | 0.00 | 0.00 | 24 | 1007.5 |
| 20260504010104 | 25 | 319 | 3.2 | 19.3 | 0.00 | 0.00 | 0.00 | 24 | 1007.6 |
| 20260504005603 | 25 | 325 | 3.2 | 19.3 | 0.00 | 0.00 | 0.00 | 24 | 1007.6 |
| 20260504005104 | 25 | 327 | 1.6 | 19.3 | 0.00 | 0.00 | 0.00 | 23 | 1007.6 |
| 20260504004604 | 25 | 323 | 3.2 | 14.5 | 0.00 | 0.00 | 0.00 | 23 | 1007.7 |
| 20260504003603 | 25 | 333 | 3.2 | 16.1 | 0.00 | 0.00 | 0.00 | 24 | 1007.8 |
| 20260504002603 | 24 | 76 | 1.6 | 16.1 | 0.00 | 0.00 | 0.00 | 24 | 1007.8 |
| 20260504001604 | 24 | 341 | 0.0 | 4.8 | 0.00 | 0.00 | 0.00 | 25 | 1007.8 |
| 20260504001104 | 24 | 321 | 1.6 | 12.9 | 0.00 | 0.00 | 0.00 | 25 | 1008.0 |
| 20260504000104 | 24 | 324 | 1.6 | 8.0 | 0.00 | 0.00 | 0.00 | 24 | 1008.2 |
| 20260503235104 | 25 | 320 | 1.6 | 19.3 | 0.00 | 0.00 | 0.00 | 25 | 1008.2 |
| 20260503234604 | 25 | 330 | 1.6 | 12.9 | 0.00 | 0.00 | 0.00 | 25 | 1008.0 |
| 20260503234104 | 25 | 327 | 1.6 | 12.9 | 0.00 | 0.00 | 0.00 | 27 | 1008.1 |
| 20260503233604 | 25 | 318 | 4.8 | 14.5 | 0.00 | 0.00 | 0.00 | 26 | 1008.1 |
| 20260503233104 | 25 | 324 | 4.8 | 19.3 | 0.00 | 0.00 | 0.00 | 26 | 1008.1 |
| 20260503232604 | 26 | 346 | 4.8 | 24.1 | 0.00 | 0.00 | 0.00 | 25 | 1008.1 |
| 20260503231604 | 26 | 322 | 3.2 | 19.3 | 0.00 | 0.00 | 0.00 | 24 | 1008.0 |
| 20260503231105 | 26 | 320 | 3.2 | 19.3 | 0.00 | 0.00 | 0.00 | 23 | 1008.1 |
| 20260503230604 | 26 | 58 | 3.2 | 8.0 | 0.00 | 0.00 | 0.00 | 23 | 1008.3 |
| 20260503230104 | 26 | 320 | 0.0 | 3.2 | 0.00 | 0.00 | 0.00 | 22 | 1008.4 |
| 20260503225604 | 25 | 326 | 1.6 | 9.7 | 0.00 | 0.00 | 0.00 | 22 | 1008.4 |
| 20260503225103 | 26 | 324 | 0.0 | 1.6 | 0.00 | 0.00 | 0.00 | 23 | 1008.5 |
| 20260503224104 | 26 | 80 | 1.6 | 4.8 | 0.00 | 0.00 | 0.00 | 23 | 1008.8 |
| 20260503223603 | 26 | 322 | 1.6 | 8.0 | 0.00 | 0.00 | 0.00 | 22 | 1008.9 |
| 20260503223103 | 26 | 308 | 0.0 | 8.0 | 0.00 | 0.00 | 0.00 | 23 | 1008.9 |
| 20260503222104 | 26 | 331 | 3.2 | 16.1 | 0.00 | 0.00 | 0.00 | 24 | 1009.1 |
| 20260503221604 | 26 | 313 | 1.6 | 12.9 | 0.00 | 0.00 | 0.00 | 22 | 1009.2 |
| 20260503221103 | 26 | 337 | 0.0 | 4.8 | 0.00 | 0.00 | 0.00 | 23 | 1009.4 |
| 20260503220603 | 26 | 322 | 1.6 | 4.8 | 0.00 | 0.00 | 0.00 | 22 | 1009.6 |
| 20260503220104 | 26 | 319 | 3.2 | 12.9 | 0.00 | 0.00 | 0.00 | 21 | 1009.6 |
| 20260503215604 | 26 | 324 | 4.8 | 19.3 | 0.00 | 0.00 | 0.00 | 21 | 1009.7 |
| 20260503215104 | 26 | 324 | 0.0 | 8.0 | 0.00 | 0.00 | 0.00 | 21 | 1009.7 |
| 20260503214603 | 26 | 128 | 0.0 | 4.8 | 0.00 | 0.00 | 0.00 | 22 | 1009.7 |
| 20260503214104 | 26 | 325 | 3.2 | 9.7 | 0.00 | 0.00 | 0.00 | 23 | 1009.7 |
| 20260503213603 | 26 | 330 | 0.0 | 4.8 | 0.00 | 0.00 | 0.00 | 22 | 1009.7 |
| 20260503213104 | 26 | 329 | 1.6 | 12.9 | 0.00 | 0.00 | 0.00 | 23 | 1009.8 |
| 20260503212604 | 26 | 329 | 1.6 | 4.8 | 0.00 | 0.00 | 0.00 | 22 | 1009.9 |
| 20260503212103 | 26 | 78 | 0.0 | 4.8 | 0.00 | 0.00 | 0.00 | 22 | 1009.9 |
| 20260503211604 | 26 | 326 | 1.6 | 8.0 | 0.00 | 0.00 | 0.00 | 23 | 1010.0 |
| 20260503210104 | 26 | 97 | 0.0 | 4.8 | 0.00 | 0.00 | 0.00 | 23 | 1010.1 |
| 20260503205604 | 26 | 77 | 3.2 | 11.3 | 0.00 | 0.00 | 0.00 | 23 | 1010.3 |
| 20260503205104 | 26 | 312 | 1.6 | 11.3 | 0.00 | 0.00 | 0.00 | 25 | 1010.3 |
| 20260503204604 | 25 | 82 | 1.6 | 4.8 | 0.00 | 0.00 | 0.00 | 26 | 1010.4 |
| 20260503204104 | 25 | 310 | 1.6 | 14.5 | 0.00 | 0.00 | 0.00 | 28 | 1010.4 |
| 20260503203603 | 24 | 321 | 1.6 | 14.5 | 0.00 | 0.00 | 0.00 | 29 | 1010.5 |
| 20260503203103 | 24 | 313 | 1.6 | 4.8 | 0.00 | 0.00 | 0.00 | 30 | 1010.6 |
| 20260503202604 | 24 | 331 | 4.8 | 11.3 | 0.00 | 0.00 | 0.00 | 28 | 1010.6 |
| 20260503201603 | 24 | 322 | 1.6 | 14.5 | 0.00 | 0.00 | 0.00 | 30 | 1010.8 |
| 20260503201104 | 24 | 329 | 3.2 | 19.3 | 0.00 | 0.00 | 0.00 | 31 | 1011.0 |
| 20260503200104 | 24 | 315 | 3.2 | 11.3 | 0.00 | 0.00 | 0.00 | 30 | 1011.0 |
| 20260503195604 | 24 | 308 | 3.2 | 4.8 | 0.00 | 0.00 | 0.00 | 31 | 1011.0 |
| 20260503195104 | 23 | 319 | 4.8 | 14.5 | 0.00 | 0.00 | 0.00 | 32 | 1011.2 |
| 20260503194104 | 23 | 316 | 1.6 | 4.8 | 0.00 | 0.00 | 0.00 | 31 | 1011.6 |
| 20260503193604 | 23 | 326 | 3.2 | 4.8 | 0.00 | 0.00 | 0.00 | 30 | 1011.7 |
| 20260503193104 | 23 | 330 | 1.6 | 12.9 | 0.00 | 0.00 | 0.00 | 31 | 1011.7 |
| 20260503192604 | 23 | 335 | 1.6 | 8.0 | 0.00 | 0.00 | 0.00 | 32 | 1011.7 |
| 20260503191603 | 22 | 329 | 1.6 | 12.9 | 0.00 | 0.00 | 0.00 | 33 | 1011.9 |
| 20260503191104 | 22 | 325 | 3.2 | 9.7 | 0.00 | 0.00 | 0.00 | 33 | 1012.1 |
| 20260503190604 | 22 | 25 | 3.2 | 12.9 | 0.00 | 0.00 | 0.00 | 34 | 1012.0 |
| 20260503190104 | 22 | 326 | 4.8 | 12.9 | 0.00 | 0.00 | 0.00 | 34 | 1012.1 |
| 20260503185604 | 22 | 317 | 3.2 | 16.1 | 0.00 | 0.00 | 0.00 | 34 | 1012.1 |
| 20260503185103 | 22 | 310 | 1.6 | 4.8 | 0.00 | 0.00 | 0.00 | 36 | 1012.3 |
| 20260503184104 | 22 | 330 | 3.2 | 4.8 | 0.00 | 0.00 | 0.00 | 34 | 1012.3 |
| 20260503183604 | 22 | 314 | 1.6 | 8.0 | 0.00 | 0.00 | 0.00 | 34 | 1012.4 |
| 20260503183104 | 22 | 327 | 1.6 | 9.7 | 0.00 | 0.00 | 0.00 | 36 | 1012.5 |
| 20260503182104 | 22 | 319 | 1.6 | 4.8 | 0.00 | 0.00 | 0.00 | 35 | 1012.5 |
| 20260503180604 | 21 | 320 | 1.6 | 8.0 | 0.00 | 0.00 | 0.00 | 37 | 1012.7 |
| 20260503180104 | 21 | 321 | 3.2 | 16.1 | 0.00 | 0.00 | 0.00 | 37 | 1012.7 |
| 20260503175604 | 21 | 330 | 1.6 | 9.7 | 0.00 | 0.00 | 0.00 | 38 | 1012.6 |
| 20260503174604 | 21 | 310 | 1.6 | 4.8 | 0.00 | 0.00 | 0.00 | 38 | 1012.7 |
| 20260503174104 | 21 | 325 | 4.8 | 9.7 | 0.00 | 0.00 | 0.00 | 37 | 1012.7 |
| 20260503172104 | 20 | 331 | 1.6 | 4.8 | 0.00 | 0.00 | 0.00 | 39 | 1013.0 |
| 20260503171604 | 20 | 327 | 3.2 | 9.7 | 0.00 | 0.00 | 0.00 | 39 | 1013.0 |
| 20260503170604 | 20 | 315 | 1.6 | 4.8 | 0.00 | 0.00 | 0.00 | 39 | 1013.0 |
| 20260503170104 | 20 | 316 | 0.0 | 4.8 | 0.00 | 0.00 | 0.00 | 40 | 1013.0 |
| 20260503160104 | 17 | 342 | 3.2 | 4.8 | 0.00 | 0.00 | 0.00 | 45 | 1013.5 |
| 20260503150604 | 13 | 198 | 0.0 | 0.0 | 0.00 | 0.00 | 0.00 | 66 | 1013.7 |
| 20260503150104 | 12 | 198 | 0.0 | 0.0 | 0.00 | 0.00 | 0.00 | 68 | 1013.8 |
| 20260503140104 | 7 | 223 | 0.0 | 0.0 | 0.00 | 0.00 | 0.00 | 81 | 1013.7 |
| 20260503131103 | 7 | 242 | 0.0 | 0.0 | 0.00 | 0.00 | 0.00 | 82 | 1013.3 |
| 20260503130604 | 7 | 242 | 0.0 | 0.0 | 0.00 | 0.00 | 0.00 | 82 | 1013.3 |
| 20260503130104 | 7 | 242 | 0.0 | 0.0 | 0.00 | 0.00 | 0.00 | 82 | 1013.3 |
| 20260503120104 | 7 | 287 | 0.0 | 0.0 | 0.00 | 0.00 | 0.00 | 80 | 1013.4 |
| 20260503110604 | 8 | 288 | 0.0 | 0.0 | 0.00 | 0.00 | 0.00 | 80 | 1013.4 |
| 20260503110104 | 8 | 288 | 0.0 | 0.0 | 0.00 | 0.00 | 0.00 | 79 | 1013.4 |